Weather History for Elizabethton, TN

Change the Weather History Date:

Monday, July 14, 2014

  Actual Average (KTRI) Record (KTRI)
Temperature  
Mean Temperature 76 °F 75 °F  
Max Temperature 89 °F 86 °F 98 °F (1954)
Min Temperature 64 °F 64 °F 51 °F (2001)
Degree Days  
Heating Degree Days 0 0  
Month to date heating degree days 0  
Since 1 June heating degree days 11  
Since 1 July heating degree days 0  
Cooling Degree Days 12 10  
Month to date cooling degree days 137  
Year to date cooling degree days 416  
Since 1 June cooling degree days 343  
Growing Degree Days 26 (Base 50)    
Moisture  
Dew Point 66 °F    
Average Humidity 78    
Maximum Humidity 100    
Minimum Humidity 46    
Precipitation  
Precipitation 0.00 in 0.16 in 2.31 in (1946)
Month to date precipitation 2.09  
Year to date precipitation 23.38  
Snow  
Snow 0.00 in 0.00 in - ()
Month to date snowfall 0.0  
Since 1 June snowfall 0.0  
Since 1 July snowfall 0.0  
Snow Depth -    
Sea Level Pressure  
Sea Level Pressure 30.02 in    
Wind  
Wind Speed 2 mph (West)    
Max Wind Speed 13 mph    
Max Gust Speed 24 mph    
Visibility 9 miles    
Events      
T = Trace of Precipitation, MM = Missing Value Source: NWS Daily Summary

Daily Weather History Graph

Daily Weather History Graph

Search for Another Location

Airport:

Trip Planner

Search our weather history database for the weather conditions in past years. The results will help you decide how hot, cold, wet, or windy it might be!

Date:

Astronomy

Jul. 14, 2014 Rise Set
Actual Time 6:21 AM EDT 8:46 PM EDT
Civil Twilight 5:52 AM EDT 9:16 PM EDT
Nautical Twilight 5:15 AM EDT 9:53 PM EDT
Astronomical Twilight 4:35 AM EDT 10:33 PM EDT
Moon 10:22 PM EDT (7/14) 8:57 AM EDT (7/14)
Length of Visible Light 15h 24m
Length of Day
14h 25m
Waning Gibbous, 93% of the Moon is Illuminated
Jul 14
Waning Gibbous
Jul 18
Last Quarter
Jul 26
New
Aug 3
First Quarter
Aug 10
Full

Hourly Weather History & Observations

Time (EDT) Temp. Heat Index Dew Point Humidity Pressure Visibility Wind Dir Wind Speed Gust Speed Precip Events Conditions
12:15 AM 68.0 °F - 66.2 °F 94% 30.08 in 9.0 mi Calm Calm - N/A   Clear
12:35 AM 68.0 °F - 66.2 °F 94% 30.08 in 9.0 mi Calm Calm - N/A   Clear
12:55 AM 68.0 °F - 66.2 °F 94% 30.08 in 8.0 mi Calm Calm - N/A   Clear
1:15 AM 66.2 °F - 66.2 °F 100% 30.08 in 8.0 mi Calm Calm - N/A   Clear
1:35 AM 66.2 °F - 66.2 °F 100% 30.07 in 7.0 mi Calm Calm - N/A   Clear
1:55 AM 66.2 °F - 66.2 °F 100% 30.07 in 7.0 mi Calm Calm - N/A   Clear
2:15 AM 66.2 °F - 66.2 °F 100% 30.07 in 8.0 mi Calm Calm - N/A   Clear
2:35 AM 66.2 °F - 66.2 °F 100% 30.07 in 7.0 mi Calm Calm - N/A   Clear
2:55 AM 66.2 °F - 64.4 °F 94% 30.07 in 7.0 mi Calm Calm - N/A   Clear
3:15 AM 66.2 °F - 64.4 °F 94% 30.06 in 8.0 mi Calm Calm - N/A   Partly Cloudy
3:35 AM 66.2 °F - 64.4 °F 94% 30.06 in 7.0 mi Calm Calm - N/A   Mostly Cloudy
3:55 AM 66.2 °F - 64.4 °F 94% 30.06 in 8.0 mi Calm Calm - N/A   Scattered Clouds
4:15 AM 66.2 °F - 64.4 °F 94% 30.05 in 8.0 mi Calm Calm - N/A   Partly Cloudy
4:35 AM 66.2 °F - 64.4 °F 94% 30.05 in 7.0 mi Calm Calm - N/A   Scattered Clouds
5:15 AM 66.2 °F - 64.4 °F 94% 30.06 in 9.0 mi Calm Calm - N/A   Scattered Clouds
5:35 AM 66.2 °F - 64.4 °F 94% 30.06 in 7.0 mi Calm Calm - N/A   Clear
5:55 AM 64.4 °F - 64.4 °F 100% 30.07 in 5.0 mi Calm Calm - N/A   Clear
6:15 AM 64.4 °F - 64.4 °F 100% 30.07 in 6.0 mi Calm Calm - N/A   Partly Cloudy
6:35 AM 64.4 °F - 64.4 °F 100% 30.07 in 3.0 mi Calm Calm - N/A   Scattered Clouds
6:55 AM 64.4 °F - 64.4 °F 100% 30.07 in 4.0 mi Calm Calm - N/A   Mostly Cloudy
7:15 AM 66.2 °F - 66.2 °F 100% 30.07 in 5.0 mi Calm Calm - N/A   Mostly Cloudy
7:35 AM 68.0 °F - 66.2 °F 94% 30.07 in 8.0 mi Calm Calm - N/A   Scattered Clouds
7:55 AM 68.0 °F - 66.2 °F 94% 30.07 in 10.0 mi Calm Calm - N/A   Scattered Clouds
8:15 AM 69.8 °F - 66.2 °F 88% 30.08 in 10.0 mi Calm Calm - N/A   Mostly Cloudy
8:35 AM 69.8 °F - 66.2 °F 88% 30.08 in 10.0 mi Calm Calm - N/A   Mostly Cloudy
8:55 AM 71.6 °F - 66.2 °F 83% 30.08 in 10.0 mi Calm Calm - N/A   Overcast
9:15 AM 71.6 °F - 68.0 °F 88% 30.08 in 10.0 mi Calm Calm - N/A   Mostly Cloudy
9:55 AM 78.8 °F - 69.8 °F 74% 30.07 in 10.0 mi WNW 3.5 mph - N/A   Mostly Cloudy
10:15 AM 77.0 °F - 69.8 °F 78% 30.07 in 10.0 mi Calm Calm - N/A   Mostly Cloudy
10:35 AM 78.8 °F - 69.8 °F 74% 30.06 in 10.0 mi NW 3.5 mph - N/A   Scattered Clouds
10:55 AM 80.6 °F 83.9 °F 69.8 °F 70% 30.06 in 10.0 mi Calm Calm - N/A   Scattered Clouds
11:15 AM 82.4 °F 86.3 °F 69.8 °F 66% 30.06 in 10.0 mi WSW 9.2 mph - N/A   Partly Cloudy
11:35 AM 82.4 °F 86.3 °F 69.8 °F 66% 30.05 in 10.0 mi SW 11.5 mph - N/A   Partly Cloudy
11:55 AM 84.2 °F 87.3 °F 68.0 °F 58% 30.04 in 10.0 mi SW 12.7 mph - N/A   Scattered Clouds
12:15 PM 82.4 °F 84.6 °F 66.2 °F 58% 30.04 in 10.0 mi WSW 12.7 mph - N/A   Scattered Clouds
12:35 PM 80.6 °F 82.7 °F 66.2 °F 61% 30.04 in 10.0 mi WSW 11.5 mph - N/A   Mostly Cloudy
12:55 PM 80.6 °F 82.7 °F 66.2 °F 61% 30.03 in 10.0 mi West 4.6 mph - N/A   Partly Cloudy
1:15 PM 82.4 °F 86.3 °F 69.8 °F 66% 30.03 in 10.0 mi WNW 4.6 mph - N/A   Partly Cloudy
1:35 PM 84.2 °F 88.4 °F 69.8 °F 62% 30.01 in 10.0 mi WNW 4.6 mph - N/A   Clear
1:55 PM 86.0 °F 88.2 °F 66.2 °F 51% 29.99 in 10.0 mi WSW 6.9 mph - N/A   Clear
2:15 PM 87.8 °F 90.4 °F 66.2 °F 49% 29.98 in 10.0 mi WNW 11.5 mph - N/A   Clear
2:35 PM 87.8 °F 89.4 °F 64.4 °F 46% 29.97 in 10.0 mi WSW 3.5 mph - N/A   Partly Cloudy
2:55 PM 87.8 °F 89.4 °F 64.4 °F 46% 29.97 in 10.0 mi SW 9.2 mph - N/A   Partly Cloudy
3:15 PM 87.8 °F 90.4 °F 66.2 °F 49% 29.96 in 10.0 mi SW 8.1 mph - N/A   Clear
3:35 PM 87.8 °F 90.4 °F 66.2 °F 49% 29.96 in 10.0 mi West 9.2 mph - N/A   Partly Cloudy
3:55 PM 87.8 °F 90.4 °F 66.2 °F 49% 29.95 in 10.0 mi West 6.9 mph - N/A   Scattered Clouds
4:15 PM 89.6 °F 92.2 °F 66.2 °F 46% 29.93 in 10.0 mi WSW 6.9 mph - N/A   Partly Cloudy
4:55 PM 89.6 °F 93.4 °F 68.0 °F 49% 29.93 in 10.0 mi Variable 6.9 mph - N/A   Partly Cloudy
5:15 PM 89.6 °F 92.2 °F 66.2 °F 46% 29.93 in 10.0 mi WSW 9.2 mph - N/A   Clear
5:35 PM 87.8 °F 90.4 °F 66.2 °F 49% 29.93 in 10.0 mi WSW 11.5 mph - N/A   Clear
5:55 PM 87.8 °F 89.4 °F 64.4 °F 46% 29.93 in 10.0 mi West 6.9 mph - N/A   Clear
6:35 PM 78.8 °F - 66.2 °F 65% 29.95 in 10.0 mi NW 12.7 mph 24.2 mph N/A   Partly Cloudy
6:55 PM 75.2 °F - 66.2 °F 73% 29.94 in 10.0 mi North 11.5 mph - N/A   Clear
7:15 PM 77.0 °F - 66.2 °F 69% 29.96 in 10.0 mi Variable 3.5 mph - N/A   Clear
7:35 PM 77.0 °F - 66.2 °F 69% 29.96 in 10.0 mi Calm Calm - N/A   Clear
7:55 PM 75.2 °F - 66.2 °F 73% 29.96 in 10.0 mi Calm Calm - N/A   Clear
8:15 PM 75.2 °F - 66.2 °F 73% 29.97 in 10.0 mi Calm Calm - N/A   Clear
8:35 PM 73.4 °F - 66.2 °F 78% 29.97 in 10.0 mi Calm Calm - N/A   Clear
8:55 PM 73.4 °F - 66.2 °F 78% 29.97 in 10.0 mi WNW 3.5 mph - N/A   Mostly Cloudy
9:15 PM 73.4 °F - 66.2 °F 78% 29.97 in 10.0 mi Variable 3.5 mph - N/A   Light Drizzle
9:35 PM 71.6 °F - 66.2 °F 83% 29.98 in 10.0 mi Calm Calm - N/A   Scattered Clouds
9:55 PM 71.6 °F - 66.2 °F 83% 29.98 in 10.0 mi ENE 3.5 mph - N/A   Mostly Cloudy
10:15 PM 71.6 °F - 66.2 °F 83% 29.97 in 10.0 mi ENE 4.6 mph - N/A   Mostly Cloudy
10:35 PM 71.6 °F - 66.2 °F 83% 29.96 in 10.0 mi East 4.6 mph - N/A   Scattered Clouds
10:55 PM 69.8 °F - 68.0 °F 94% 29.96 in 10.0 mi East 6.9 mph - N/A   Clear
11:15 PM 69.8 °F - 68.0 °F 94% 29.96 in 10.0 mi Calm Calm - N/A   Scattered Clouds
11:35 PM 69.8 °F - 66.2 °F 88% 29.96 in 10.0 mi NNE 3.5 mph - N/A   Partly Cloudy
11:55 PM 69.8 °F - 66.2 °F 88% 29.97 in 10.0 mi Calm Calm - N/A   Clear